Tracking 30995 objects as of 5-Jul-2025
HD Live streaming from Space Station
objects crossing your sky now

ARIANE 5 R/B

Track ARIANE 5 R/B now!
10-day predictions


NORAD ID: 39218
Int'l Code: 2013-038D
Perigee: 225.6 km
Apogee: 26,217.9 km
Inclination: 3.2 °
Period: 454.9 minutes
Semi major axis: 19592 km
RCS: Unknown
Launch date: July 25, 2013
Source: France (FR)
Launch site: FRENCH GUIANA (FRGUI)

Note: This is a ROCKET BODY
Your satellite tracking list
Your tracking list is empty




NASA's NSSDC Master Catalog

Two Line Element Set (TLE):
1 39218U 13038D   25186.19975850  .00010895  00000-0  90008-3 0  9997
2 39218   3.1921  63.7388 6633149 168.3237 221.5688  3.16563207114087
Source of the keplerian elements: AFSPC